Location: B?lite?ti
(46.2833°N, 22.7333°E)
Time: 04:34:13
(UTC+00:00)

USA 281 - Pass Details

Date: 24 January 2021
Orbit: 1072 x 1086 km, 106.0° (Epoch: 22 February)

Event Time Altitude Azimuth Distance (km) Brightness Sun altitude
Exits shadow 18:07:16 25° 17° (NNE) 2,042 4.5 -28.4°
Drops below altitude 10° 18:10:40 10° 351° (N) 2,940 5.6 -28.9°
Sets 18:13:29 0° 341° (NNW) 3,898 6.4 -29.4°
